Weather History for Jackson, WY

Change the Weather History Date:

Wednesday, January 2, 2013

  Actual Average Record
Temperature  
Mean Temperature -3 °F -  
Max Temperature 8 °F 21 °F 45 °F (1981)
Min Temperature -14 °F -4 °F -42 °F (1979)
Degree Days  
Heating Degree Days 68    
Moisture  
Dew Point -5 °F    
Average Humidity 91    
Maximum Humidity 100    
Minimum Humidity 79    
Precipitation  
Precipitation 0.00 in - - ()
Sea Level Pressure  
Sea Level Pressure 30.31 in    
Wind  
Wind Speed 6 mph (NNE)    
Max Wind Speed 14 mph    
Max Gust Speed -    
Visibility 9 miles    
Events Snow    
Averages and records for this station are not official NWS values.
T = Trace of Precipitation, MM = Missing Value Source: NWS Daily Summary

Daily Weather History Graph

Daily Weather History Graph

Search for Another Location

Airport:

Trip Planner

Search our weather history database for the weather conditions in past years. The results will help you decide how hot, cold, wet, or windy it might be!

Date:

Astronomy

Jan. 02, 2013 Rise Set
Actual Time 7:56 AM MST 4:58 PM MST
Civil Twilight 7:23 AM MST 5:30 PM MST
Nautical Twilight 6:47 AM MST 6:06 PM MST
Astronomical Twilight 6:13 AM MST 6:41 PM MST
Moon 10:45 PM MST (1/2) 10:29 AM MST (1/2)
Length of Visible Light 10h 06m
Length of Day
9h 01m
Waning Gibbous, 74% of the Moon is Illuminated
Jan 2
Waning Gibbous
Jan 4
Last Quarter
Jan 11
New
Jan 18
First Quarter
Jan 26
Full

Hourly Weather History & Observations

Time (MST) Temp. Windchill Dew Point Humidity Pressure Visibility Wind Dir Wind Speed Gust Speed Precip Events Conditions
12:15 AM -9.4 °F -20.9 °F -11.2 °F 92% 30.27 in 10.0 mi NNE 4.6 mph - N/A   Partly Cloudy
12:35 AM -7.6 °F -22.1 °F -9.4 °F 92% 30.27 in 10.0 mi NNE 6.9 mph - N/A   Mostly Cloudy
12:55 AM -4.0 °F -20.2 °F -5.8 °F 92% 30.27 in 9.0 mi North 9.2 mph - N/A   Overcast
1:15 AM -4.0 °F -12.4 °F -7.6 °F 85% 30.27 in 8.0 mi NE 3.5 mph - N/A   Overcast
1:35 AM -4.0 °F -17.8 °F -5.8 °F 92% 30.27 in 8.0 mi North 6.9 mph - N/A   Overcast
2:15 AM -4.0 °F -16.3 °F -5.8 °F 92% 30.27 in 7.0 mi NNE 5.8 mph - N/A   Overcast
2:35 AM -2.2 °F -10.4 °F -5.8 °F 85% 30.28 in 6.0 mi NNE 3.5 mph - N/A   Overcast
2:55 AM -2.2 °F -15.6 °F -4.0 °F 92% 30.27 in 5.0 mi NNE 6.9 mph - N/A   Overcast
3:15 AM -2.2 °F -12.5 °F -2.2 °F 100% 30.28 in 10.0 mi NNE 4.6 mph - N/A   Overcast
3:35 AM -0.4 °F -13.4 °F -2.2 °F 92% 30.27 in 9.0 mi North 6.9 mph - N/A   Overcast
3:55 AM -0.4 °F -16.7 °F -2.2 °F 92% 30.28 in 5.0 mi North 10.4 mph - N/A   Overcast
4:15 AM -0.4 °F -14.7 °F -2.2 °F 92% 30.27 in 8.0 mi North 8.1 mph - N/A   Overcast
4:35 AM 1.4 °F -9.9 °F 1.4 °F 100% 30.28 in 4.0 mi NE 5.8 mph - N/A   Overcast
5:15 AM 1.4 °F -12.5 °F -0.4 °F 92% 30.29 in 8.0 mi North 8.1 mph - N/A   Overcast
5:35 AM 1.4 °F -8.3 °F 1.4 °F 100% 30.30 in 7.0 mi NNE 4.6 mph - N/A   Overcast
5:55 AM 1.4 °F -9.9 °F -0.4 °F 92% 30.30 in 7.0 mi North 5.8 mph - N/A   Overcast
6:15 AM 1.4 °F -8.3 °F -0.4 °F 92% 30.31 in 10.0 mi NNE 4.6 mph - N/A   Overcast
6:35 AM 1.4 °F -12.5 °F 1.4 °F 100% 30.30 in 10.0 mi North 8.1 mph - N/A   Overcast
6:51 AM 1.4 °F -6.2 °F -0.4 °F 92% 30.30 in 10.0 mi NNE 3.5 mph - N/A   Overcast
7:59 AM 1.4 °F -6.2 °F 1.4 °F 100% 30.30 in 10.0 mi NW 3.5 mph - N/A   Overcast
8:54 AM 3.2 °F -4.2 °F 1.4 °F 92% 30.32 in 4.0 mi NNW 3.5 mph - N/A Snow Light Snow
9:51 AM 3.2 °F -6.2 °F 1.4 °F 92% 30.33 in 6.0 mi North 4.6 mph - N/A   Overcast
10:57 AM 5.0 °F -2.1 °F 1.4 °F 85% 30.34 in 10.0 mi North 3.5 mph - N/A Snow Snow
12:51 PM 6.8 °F -0.1 °F 3.2 °F 85% 30.31 in 10.0 mi East 3.5 mph - N/A   Clear
1:59 PM 8.6 °F 0.1 °F 3.2 °F 79% 30.29 in 10.0 mi SE 4.6 mph - N/A   Clear
2:52 PM 8.6 °F - 3.2 °F 79% 30.29 in 10.0 mi Calm Calm - N/A   Clear
3:54 PM 6.8 °F - 1.4 °F 79% 30.30 in 10.0 mi Calm Calm - N/A   Clear
4:51 PM 3.2 °F - -0.4 °F 85% 30.31 in 10.0 mi Calm Calm - N/A   Clear
5:51 PM -2.2 °F - -2.2 °F 100% 30.32 in 10.0 mi Calm Calm - N/A   Clear
6:55 PM -7.6 °F -28.3 °F -9.4 °F 92% 30.33 in 10.0 mi North 13.8 mph - N/A   Clear
7:51 PM -4.0 °F -22.1 °F -5.8 °F 92% 30.33 in 10.0 mi NNE 11.5 mph - N/A   Clear
8:51 PM -7.6 °F -22.1 °F -9.4 °F 92% 30.33 in 10.0 mi North 6.9 mph - N/A   Clear
8:55 PM -7.6 °F -24.6 °F -9.4 °F 92% 30.34 in 10.0 mi North 9.2 mph - N/A   Clear
9:15 PM -9.4 °F -24.3 °F -11.2 °F 92% 30.34 in 10.0 mi North 6.9 mph - N/A   Clear
9:55 PM -11.2 °F -24.8 °F -13.0 °F 92% 30.36 in 10.0 mi North 5.8 mph - N/A   Clear
10:15 PM -11.2 °F -24.8 °F -14.8 °F 84% 30.36 in 10.0 mi NE 5.8 mph - N/A   Clear
10:35 PM -9.4 °F -24.3 °F -11.2 °F 92% 30.36 in 10.0 mi North 6.9 mph - N/A   Clear
10:55 PM -14.8 °F -33.5 °F -16.6 °F 92% 30.36 in 10.0 mi North 9.2 mph - N/A   Clear
11:15 PM -13.0 °F -31.3 °F -14.8 °F 92% 30.37 in 10.0 mi North 9.2 mph - N/A   Clear
11:35 PM -11.2 °F -27.8 °F -14.8 °F 84% 30.37 in 10.0 mi NNE 8.1 mph - N/A   Clear
11:55 PM -11.2 °F -24.8 °F -13.0 °F 92% 30.37 in 10.0 mi NNE 5.8 mph - N/A   Clear